Regional Weather Roundup
Issued by NWS

Home | Current Version | Previous Version | Text Only | Print | Product List | Glossary On
Versions: 1 2 3 4 5 6 7 8 9 10 11 12 13 14 15 16 17 18 19 20 21 22 23 24 25 26 27 28 29 30 31 32 33 34 35 36 37 38 39 40 41 42 43 44 45 46 47 48 49 50
000
ASUS43 KTOP 270659
RWRKS

WEATHER ROUNDUP FOR KANSAS
NATIONAL WEATHER SERVICE GOODLAND KS
100 AM CST THU NOV 27 2014

NOTE:  "FAIR" INDICATES FEW OR NO CLOUDS BELOW 12,000 FEET WITH NO
SIGNIFICANT WEATHER AND/OR OBSTRUCTIONS TO VISIBILITY.

KSZ001>006-013>018-027>032-041>047-270800-
NORTHWEST KANSAS

CITY           SKY/WX    TMP DP  RH WIND       PRES   REMARKS
GOODLAND       CLEAR     26  22  84 S10       30.34F WCI  16
HAYS           CLOUDY    30  16  55 E5        30.43S
HILL CITY      CLOUDY    30  18  60 SE3       30.41S
RUSSELL        PTCLDY    25  18  74 E3        30.43R
$$

KSZ061>065-074>080-084>089-270800-
SOUTHWEST KANSAS

CITY           SKY/WX    TMP DP  RH WIND       PRES   REMARKS
DODGE CITY     CLEAR     27  16  63 SE5       30.42S
ELKHART          N/A     27  15  61 S9          N/A
GARDEN CITY    CLEAR     22  15  75 S5        30.41R
GREAT BEND     CLOUDY    28  16  59 N3        30.45S
LIBERAL        PTCLDY    23  10  58 CALM      30.45R
$$

KSZ066>073-081>083-090>101-270800-
SOUTHEAST KANSAS

CITY           SKY/WX    TMP DP  RH WIND       PRES   REMARKS
CHANUTE        CLEAR     26  21  81 NW9       30.46R
COFFEYVILLE    CLEAR     29  21  72 N13       30.46R WCI  19
HUTCHINSON     PTCLDY    28  18  66 NE6       30.45R
MEDICINE LODGE   N/A     28  21  75 NW3       30.46S
NEWTON         CLEAR     25  16  68 N14       30.44F WCI  13
PARSONS        CLEAR     28  22  78 N10G22    30.45S WCI  19
WICHITA INTL   MOCLDY    31  19  61 N10       30.44F WCI  22
WICHITA JABRA  PTCLDY    27  20  75 NE13      30.42F WCI  16
WINFIELD       MOCLDY    32  22  66 N14       30.45F WCI  22
$$

KSZ007>012-019>026-033>040-048>060-102>105-270800-
NORTHEAST KANSAS

CITY           SKY/WX    TMP DP  RH WIND       PRES   REMARKS
CONCORDIA      CLEAR     21  16  81 NE5       30.46S
EMPORIA        CLEAR     22  18  85 N8        30.47R
LAWRENCE       CLOUDY    27  20  75 NW12      30.48R WCI  17
MANHATTAN      CLEAR     22  17  81 W3        30.50R
OLATHE IND     CLOUDY    27  21  78 NW13      30.44R WCI  16
OLATHE EXE     CLOUDY    28  21  75 NW13      30.42R WCI  17
SALINA         CLEAR     27  17  66 NE5       30.48S
TOPEKA BILLARD CLOUDY    28  19  69 NW6       30.49S
TOPEKA FORBES  CLOUDY    28  19  69 N10       30.48R WCI  19
$$



USA.gov is the U.S. government's official web portal to all federal, state and local government web resources and services.